Daggett, CA

12:43 AM PST on February 09, 2016 (GMT -0800)
Barstow-Daggett

Weather History for KDAG - March, 2013

Change the Weather History Date:

Thursday, March 14, 2013

  Actual Average Record
Temperature  
Mean Temperature 72 °F -  
Max Temperature 91 °F 70 °F 91 °F (2007)
Min Temperature 55 °F 45 °F 27 °F (1962)
Cooling Degree Days 8    
Growing Degree Days 22 (Base 50)    
Moisture  
Dew Point 29 °F    
Average Humidity 23    
Maximum Humidity 40    
Minimum Humidity 10    
Precipitation  
Precipitation 0.00 in - - ()
Sea Level Pressure  
Sea Level Pressure 30.06 in    
Wind  
Wind Speed 7 mph (WNW)    
Max Wind Speed 12 mph    
Max Gust Speed -    
Visibility 10 miles    
Events      
Averages and records for this station are not official NWS values.
T = Trace of Precipitation, MM = Missing Value Source: NWS Daily Summary

Daily Weather History Graph

Daily Weather History Graph

Search for Another Location

Airport or City:

Trip Planner

Search our weather history database for the weather conditions in past years. The results will help you decide how hot, cold, wet, or windy it might be!

Date:

Astronomy

Mar. 14, 2013 Rise Set
Actual Time 6:58 AM PDT 6:54 PM PDT
Civil Twilight 6:33 AM PDT 7:19 PM PDT
Nautical Twilight 6:04 AM PDT 7:48 PM PDT
Astronomical Twilight 5:34 AM PDT 8:18 PM PDT
Moon 8:23 AM PDT (3/14) 10:05 PM PDT (3/14)
Length of Visible Light 12h 45m
Length of Day
11h 55m
Waxing Crescent, 9% of the Moon is Illuminated
Mar 14
Waxing Crescent
Mar 19
First Quarter
Mar 27
Full
Apr 2
Last Quarter
Apr 10
New

Hourly Weather History & Observations

Time (PDT) Temp. Dew Point Humidity Pressure Visibility Wind Dir Wind Speed Gust Speed Precip Events Conditions
1:50 AM 57.9 °F 30.9 °F 36% 30.08 in 10.0 mi WNW 5.8 mph - N/A   Clear
2:50 AM 55.9 °F 30.9 °F 39% 30.09 in 10.0 mi West 8.1 mph - N/A   Clear
3:50 AM 55.0 °F 30.9 °F 40% 30.08 in 10.0 mi WNW 6.9 mph - N/A   Clear
4:50 AM 55.0 °F 30.0 °F 38% 30.09 in 10.0 mi West 9.2 mph - N/A   Clear
5:50 AM 55.9 °F 28.9 °F 36% 30.10 in 10.0 mi West 8.1 mph - N/A   Clear
6:50 AM 55.0 °F 28.9 °F 37% 30.11 in 10.0 mi West 8.1 mph - N/A   Clear
7:50 AM 55.9 °F 30.0 °F 37% 30.13 in 10.0 mi West 10.4 mph - N/A   Clear
8:50 AM 64.9 °F 28.9 °F 26% 30.14 in 10.0 mi West 9.2 mph - N/A   Clear
9:50 AM 69.1 °F 28.9 °F 22% 30.14 in 10.0 mi West 10.4 mph - N/A   Clear
10:50 AM 75.0 °F 28.0 °F 18% 30.13 in 10.0 mi West 8.1 mph - N/A   Clear
11:50 AM 78.1 °F 28.9 °F 17% 30.11 in 10.0 mi Calm Calm - N/A   Clear
12:50 PM 82.0 °F 30.0 °F 15% 30.08 in - East 5.8 mph - N/A   Clear
1:50 PM 84.9 °F 28.0 °F 13% 30.04 in 10.0 mi NE 9.2 mph - N/A   Clear
2:50 PM 88.0 °F 30.0 °F 12% 30.01 in 10.0 mi ENE 11.5 mph - N/A   Clear
3:50 PM 90.0 °F 28.9 °F 11% 29.99 in 10.0 mi NNE 6.9 mph - N/A   Clear
4:50 PM 90.0 °F 27.0 °F 10% 29.98 in 10.0 mi Calm Calm - N/A   Clear
5:50 PM 90.0 °F 27.0 °F 10% 29.97 in 10.0 mi North 3.5 mph - N/A   Clear
6:50 PM 82.9 °F 30.9 °F 15% 29.98 in 10.0 mi Calm Calm - N/A   Clear
7:50 PM 78.1 °F 28.9 °F 17% 29.99 in 10.0 mi Calm Calm - N/A   Clear
8:50 PM 75.0 °F 28.0 °F 18% 29.99 in 10.0 mi Calm Calm - N/A   Clear
9:50 PM 69.1 °F 30.9 °F 24% 30.00 in 10.0 mi West 8.1 mph - N/A   Clear
10:50 PM 69.1 °F 30.9 °F 24% 30.01 in 10.0 mi WNW 10.4 mph - N/A   Clear